{"data":{"norad_id":82560,"epoch":"2026-05-23T15:40:03.914976Z","epoch_age_seconds":181628,"freshness":"STALE","line1":"1 82560U          26143.65282309  .00000781  00000+0  66187-3 0  9998","line2":"2 82560 100.0018 103.3648 0008761 240.4006 299.2104 13.91086774634372","mean_motion":13.91086774,"eccentricity":0.0008761,"inclination_deg":100.0018,"raan_deg":103.3648,"arg_perigee_deg":240.4006,"mean_anomaly_deg":299.2104,"bstar":0.00066187,"rev_number":63437,"period_min":103.5161879844,"perigee_km":918.4266420176,"apogee_km":931.22289162542,"semimajor_km":7302.9617668215,"source":"CELESTRAK","updated_at":"2026-05-25T13:38:11.191541Z"}}